Location: Roanoke
(37.2710°N, 79.9420°W)
Time: 15:46:53
(UTC-05:00)

S-56A Canister/Altair - Pass Details

Date: 25 November 2019
Orbit: 632 x 2500 km, 38.9° (Epoch: 14 December)

Event Time Altitude Azimuth Distance (km) Brightness Sun altitude
Rises 19:08:56 0° 283° (WNW) 5,051 12.8 -24.5°
Reaches altitude 10° 19:12:46 10° 283° (WNW) 3,758 11.9 -25.2°
Maximum altitude 19:21:54 84° 197° (SSW) 1,124 8.2 -27.0°
Enters shadow 19:23:13 61° 118° (ESE) 1,181 8.1 -27.3°
Drops below altitude 10° 19:27:49 10° 110° (ESE) 2,502 - -28.2°
Sets 19:29:56 0° 109° (ESE) 3,285 - -28.6°
